Wind_Speed
39 38 38 38 37 37 37 37 37 35 34 33 33 33 32 32 31 30 30 29 28 28 27 27 26 26 26 26 25 24 24 24 23 23 24 25 26 26 27 28 28 29 30 31
40 40 40 40 38 38 37 37 37 36 35 33 33 34 33 33 32 32 31 30 30 29 29 28 28 27 26 26 26 24 24 24 24 24 24 24 25 26 27 27 28 29 30 30
40 39 41 41 37 37 37 37 38 38 36 35 34 34 34 33 33 33 32 32 31 30 30 29 28 27 26 26 26 25 25 25 25 25 26 25 25 25 26 26 27 29 30 31
39 39 41 38 37 38 38 38 38 38 37 37 36 35 35 34 34 33 33 33 32 31 30 29 28 28 27 27 27 26 26 26 26 27 28 28 27 27 26 26 28 29 30 31
39 40 40 38 37 37 38 38 37 37 37 37 37 37 36 35 34 34 33 33 32 31 31 30 29 29 29 28 29 28 28 28 29 29 30 30 29 29 29 29 29 29 31 32
39 39 39 37 36 37 37 37 37 38 37 37 37 37 35 35 35 35 34 33 32 32 31 31 30 30 29 30 30 30 30 30 31 31 30 31 30 30 30 31 31 31 32 33
39 40 39 37 36 35 36 36 36 37 37 37 37 37 35 36 36 35 34 33 33 32 32 31 31 31 31 31 32 32 32 33 33 33 32 32 32 31 32 33 33 34 34 34
37 39 39 37 36 36 36 35 35 36 36 37 37 37 36 35 35 34 34 34 33 33 33 33 33 33 33 33 33 33 33 33 33 33 33 33 33 33 34 34 34 35 35 35
38 38 37 37 37 37 37 37 36 36 35 36 36 36 36 35 35 34 34 34 33 33 34 34 34 34 34 33 33 33 33 33 33 33 33 33 34 34 35 35 36 36 36 36
38 37 37 36 36 37 38 38 37 36 35 35 35 35 35 35 34 34 35 35 34 34 35 35 35 35 35 35 35 34 34 34 33 34 34 34 34 35 35 36 36 37 38 37
36 35 36 35 36 36 38 38 37 36 35 35 34 34 34 34 34 34 34 35 35 35 36 36 36 36 36 36 36 35 34 34 34 34 34 34 35 35 36 37 38 38 38 37
34 33 35 34 34 35 36 37 37 36 35 34 34 33 34 34 35 35 34 34 35 35 36 36 37 37 37 37 36 36 35 34 34 34 34 35 35 36 37 38 38 38 37 37
33 33 33 32 33 34 36 36 36 35 35 34 33 33 33 34 35 35 35 35 36 36 37 37 37 37 37 36 36 36 35 35 34 34 35 35 36 37 37 37 37 36 35 35
32 32 32 32 32 32 34 34 34 33 33 33 33 33 33 34 33 34 34 35 35 36 36 36 36 36 36 36 36 35 35 35 35 35 36 36 36 36 35 35 34 34 34 35
31 31 31 31 32 32 33 33 33 32 32 32 32 32 33 33 33 33 33 34 34 34 35 35 35 35 35 35 34 34 34 35 36 36 36 36 36 35 35 34 34 34 34 35
30 31 30 30 31 31 31 31 31 31 31 31 32 32 32 32 32 32 32 32 32 32 33 33 33 33 33 33 33 34 35 35 35 35 35 35 35 35 35 35 35 34 35 35
28 28 29 29 29 29 29 29 30 30 30 30 31 31 31 31 31 31 32 32 32 33 34 34 33 33 33 33 33 33 33 33 33 33 33 33 34 34 34 34 35 35 35 36
27 27 28 28 27 27 27 28 28 28 28 29 30 31 31 30 30 30 31 32 32 33 33 33 33 32 33 33 32 32 32 32 32 32 33 33 33 33 33 34 34 35 36 36
25 25 26 26 26 25 25 25 26 27 27 27 28 29 29 30 30 29 30 31 31 32 32 32 32 32 32 32 32 32 32 32 32 32 32 32 32 32 33 33 34 35 35 36
23 23 24 24 24 24 24 24 25 25 26 26 27 28 29 29 30 30 30 31 31 31 32 32 32 32 32 32 32 32 32 32 32 32 32 32 32 33 33 33 34 34 34 35
22 22 22 23 23 23 24 24 24 24 25 26 26 27 27 28 29 29 29 30 30 31 31 31 31 31 31 32 32 32 33 33 33 32 32 32 33 33 33 33 34 33 33 33
21 21 22 23 22 23 23 23 23 24 24 25 26 26 27 27 28 28 29 29 30 30 30 30 31 31 32 33 33 33 33 33 33 33 33 33 32 32 32 32 32 32 32 31
19 20 20 21 21 21 22 22 22 22 23 24 24 25 26 26 27 27 28 28 28 29 29 30 30 30 31 32 32 32 32 32 31 31 32 32 32 31 31 30 30 30 30 30
19 19 19 19 19 19 19 20 20 21 21 22 23 23 24 25 25 26 26 27 27 27 27 28 28 28 29 29 29 30 30 30 30 30 30 30 30 30 30 29 28 28 28 28
17 17 17 18 17 17 17 18 19 19 20 20 21 21 22 23 23 23 24 24 25 25 25 25 26 26 26 26 26 26 27 27 28 28 29 29 29 29 28 28 28 28 27 26
16 17 17 17 17 17 18 18 19 19 19 19 20 20 21 21 21 21 21 22 22 22 23 24 24 24 24 25 25 25 26 26 26 27 27 27 27 27 26 26 25 25 25 25
17 17 17 17 18 18 18 18 18 18 19 19 20 19 19 19 19 20 20 21 21 21 22 22 23 23 24 24 24 24 24 24 24 24 24 24 24 24 24 24 24 24 24 23
Wind_Direction
261 262 263 263 263 264 264 266 268 270 270 269 268 269 270 270 272 274 276 277 278 279 279 280 281 281 281 282 284 286 286 285 284 284 281 278 277 274 272 271 269 269 268 267
261 261 261 262 263 263 264 264 266 268 269 268 268 267 268 268 269 271 273 275 278 279 279 278 279 281 280 281 281 283 284 284 283 282 282 282 279 276 274 273 271 273 272 270
262 261 261 261 262 263 264 264 265 266 267 268 267 267 266 266 266 268 270 272 275 277 279 279 278 279 279 279 280 281 281 282 282 282 283 284 283 280 276 274 274 274 275 275
262 261 262 264 263 263 264 264 265 266 266 265 265 265 266 265 265 266 268 270 273 275 275 276 275 276 276 277 277 278 279 280 280 281 282 282 282 280 277 277 278 277 275 276
264 264 264 263 264 265 265 264 264 265 265 265 265 264 265 264 263 265 267 269 271 272 272 273 274 274 274 275 276 277 278 279 280 280 280 278 280 279 277 278 279 280 278 278
264 265 266 265 264 265 265 263 262 263 265 264 265 263 262 263 263 264 266 268 269 270 271 272 272 272 273 275 276 277 277 277 279 277 277 277 278 278 279 279 280 281 281 279
263 264 265 265 265 265 265 264 263 264 265 263 263 262 261 262 263 264 265 266 267 268 269 269 270 271 272 273 274 275 276 276 277 276 276 277 278 279 279 280 281 283 282 282
263 263 264 265 265 263 263 262 263 263 265 264 263 262 261 262 262 262 263 263 265 266 266 267 269 271 272 273 274 275 276 277 276 276 277 278 278 278 279 280 282 283 283 284
264 264 265 264 263 261 260 261 262 263 264 264 263 262 262 262 261 261 261 262 263 264 266 267 269 271 272 273 274 275 276 277 276 276 277 277 277 277 278 280 281 282 284 285
264 264 264 263 262 262 260 261 262 262 262 263 262 262 261 262 261 261 261 262 264 264 265 267 269 271 271 273 274 274 275 275 275 275 276 276 277 278 278 280 282 284 285 285
265 264 262 261 262 263 261 260 261 261 261 262 263 261 261 260 259 260 262 263 264 264 265 267 269 271 272 273 274 274 273 273 274 274 275 275 276 277 278 280 282 284 284 284
266 264 263 261 260 262 262 260 261 260 260 260 260 260 259 260 260 261 262 264 265 265 266 267 269 270 271 273 273 273 272 273 274 275 275 276 277 278 279 281 283 284 284 283
266 265 265 264 262 263 262 261 261 261 260 258 259 260 259 259 260 261 262 264 265 265 266 267 267 269 270 272 272 271 272 273 274 274 275 276 277 278 280 282 283 284 284 285
265 265 263 264 265 264 263 261 260 261 260 259 258 258 259 259 259 261 263 265 266 266 267 267 267 268 270 271 271 272 273 273 274 275 275 277 278 279 281 282 282 283 284 284
265 265 265 264 264 263 263 262 261 261 262 260 259 260 260 261 262 262 264 266 267 267 267 268 268 269 270 271 271 272 273 273 274 275 276 277 278 280 281 282 282 282 284 285
267 266 266 266 264 264 264 263 262 262 261 260 259 259 260 261 263 264 265 265 266 267 267 268 269 270 270 270 270 272 273 275 276 277 277 278 279 279 280 281 282 282 283 285
270 268 267 266 266 266 265 264 263 263 263 262 260 259 260 261 263 264 264 265 266 267 269 270 270 269 269 270 271 273 274 277 278 279 278 278 279 279 279 280 282 283 283 284
270 268 266 265 266 267 266 265 265 264 265 264 262 261 261 262 264 265 265 267 268 270 270 271 271 271 271 272 273 274 275 277 279 280 280 279 279 279 280 281 282 283 284 285
271 269 268 268 268 268 268 267 266 266 265 263 262 260 260 261 263 265 268 269 269 269 269 270 270 271 272 272 274 275 276 278 279 279 280 280 279 280 281 282 283 284 285 287
272 270 269 268 268 268 269 270 269 267 265 262 260 260 261 262 263 265 268 269 269 269 270 270 271 271 272 273 274 275 276 278 279 279 279 280 280 281 282 283 283 284 285 286
272 271 270 269 269 269 269 269 269 268 265 262 260 260 260 262 263 265 267 268 269 270 270 270 270 271 271 273 274 275 277 277 277 278 279 280 281 282 282 282 283 284 285 285
274 274 274 273 272 272 272 271 269 267 266 264 263 262 261 263 265 267 269 270 270 270 270 271 271 271 271 273 274 276 277 277 277 277 279 280 280 281 282 282 283 284 284 284
276 276 277 277 276 274 274 273 271 269 268 267 265 264 264 265 267 269 271 272 272 272 272 272 272 273 274 275 276 276 277 276 276 277 278 279 279 280 281 283 283 283 283 284
278 279 280 281 281 278 276 274 272 271 270 269 270 269 268 268 269 270 270 271 272 272 273 273 273 274 277 278 277 277 277 276 276 277 278 279 279 280 281 282 282 283 284 284
279 279 281 280 280 279 277 275 274 274 273 272 272 271 271 270 270 270 270 271 272 273 275 276 276 277 278 278 279 279 279 279 279 279 279 280 280 280 280 281 282 283 284 283
279 281 280 279 279 279 277 276 276 276 276 275 275 274 273 272 271 271 271 272 273 275 276 277 278 278 279 279 279 280 280 280 280 281 282 282 281 280 279 280 282 283 283 282
279 280 280 279 278 278 278 278 277 276 276 276 276 276 276 275 273 272 272 273 275 277 279 279 279 280 280 280 281 281 281 281 281 282 283 283 281 279 278 279 281 284 284 282
Height
5630 5631 5631 5632 5633 5634 5633 5633 5634 5636 5636 5638 5637 5637 5637 5637 5637 5637 5637 5637 5637 5636 5635 5633 5632 5631 5629 5628 5626 5625 5623 5622 5620 5619 5617 5616 5615 5614 5613 5613 5612 5612 5612 5612
5618 5619 5619 5620 5622 5622 5623 5623 5623 5624 5626 5628 5627 5627 5627 5628 5628 5628 5628 5628 5628 5627 5627 5625 5624 5623 5622 5620 5619 5618 5616 5615 5613 5612 5611 5609 5608 5607 5606 5605 5605 5604 5604 5604
5606 5607 5606 5608 5612 5612 5612 5613 5613 5613 5616 5616 5616 5616 5617 5617 5618 5619 5619 5619 5619 5619 5618 5617 5616 5615 5614 5612 5611 5610 5609 5608 5606 5605 5604 5602 5601 5599 5598 5598 5597 5596 5596 5596
5593 5595 5595 5600 5601 5601 5601 5602 5602 5602 5604 5605 5605 5606 5606 5607 5608 5609 5609 5609 5610 5609 5609 5608 5607 5606 5605 5604 5604 5602 5601 5600 5599 5598 5596 5595 5593 5592 5591 5591 5590 5588 5588 5587
5581 5582 5583 5588 5590 5589 5589 5590 5591 5591 5592 5593 5594 5595 5596 5597 5598 5599 5599 5599 5600 5600 5600 5599 5599 5598 5597 5596 5595 5594 5593 5592 5591 5589 5588 5587 5586 5585 5584 5583 5582 5580 5579 5578
5570 5570 5572 5577 5578 5577 5578 5579 5581 5580 5581 5582 5582 5584 5586 5586 5587 5588 5589 5589 5590 5590 5590 5590 5589 5589 5588 5588 5587 5586 5585 5583 5582 5581 5579 5578 5577 5576 5575 5574 5572 5571 5570 5569
5559 5558 5560 5565 5566 5567 5568 5569 5568 5568 5569 5570 5570 5572 5575 5575 5576 5577 5578 5579 5579 5580 5580 5580 5580 5580 5579 5578 5578 5577 5576 5574 5573 5572 5570 5569 5568 5567 5566 5565 5564 5562 5561 5559
5549 5548 5552 5554 5554 5555 5556 5556 5556 5556 5557 5558 5559 5561 5562 5564 5565 5566 5567 5568 5569 5570 5570 5570 5570 5570 5569 5568 5568 5567 5566 5564 5563 5562 5560 5559 5558 5557 5556 5555 5554 5552 5551 5549
5539 5540 5542 5541 5541 5543 5543 5544 5545 5545 5547 5547 5548 5550 5551 5552 5554 5555 5556 5557 5558 5559 5559 5560 5559 5559 5559 5558 5557 5556 5555 5554 5552 5551 5550 5549 5548 5547 5546 5545 5544 5542 5540 5538
5526 5528 5530 5529 5530 5530 5531 5532 5533 5534 5535 5536 5537 5538 5540 5541 5543 5544 5545 5547 5547 5548 5549 5549 5549 5548 5548 5547 5546 5545 5544 5543 5542 5541 5540 5538 5537 5536 5535 5534 5533 5531 5529 5528
5515 5517 5517 5518 5518 5519 5520 5520 5521 5523 5524 5525 5526 5528 5529 5530 5532 5533 5534 5535 5536 5537 5537 5538 5538 5537 5536 5536 5535 5534 5533 5532 5531 5530 5529 5528 5527 5526 5525 5524 5522 5520 5518 5516
5505 5506 5506 5507 5508 5508 5508 5509 5510 5511 5513 5514 5515 5517 5518 5519 5521 5522 5523 5524 5525 5525 5526 5526 5526 5526 5525 5524 5523 5523 5522 5522 5521 5520 5519 5518 5517 5515 5514 5512 5511 5509 5507 5505
5494 5494 5494 5496 5497 5497 5497 5498 5499 5500 5502 5503 5505 5506 5507 5509 5510 5511 5512 5513 5514 5514 5515 5515 5515 5514 5514 5513 5512 5512 5511 5511 5510 5509 5508 5507 5506 5504 5503 5501 5499 5497 5496 5494
5483 5483 5484 5485 5486 5486 5486 5487 5488 5490 5491 5493 5494 5495 5497 5498 5499 5500 5501 5502 5502 5502 5503 5503 5503 5503 5502 5502 5501 5501 5500 5500 5499 5498 5497 5496 5494 5493 5492 5491 5489 5487 5486 5484
5473 5473 5474 5475 5475 5476 5476 5477 5478 5480 5481 5482 5484 5485 5486 5487 5489 5490 5491 5491 5491 5491 5492 5492 5492 5492 5491 5491 5490 5490 5489 5489 5488 5487 5486 5485 5483 5482 5481 5480 5479 5477 5475 5474
5464 5463 5464 5465 5465 5466 5466 5467 5468 5470 5471 5472 5473 5475 5476 5477 5478 5479 5480 5480 5481 5481 5481 5481 5481 5481 5480 5480 5480 5479 5478 5477 5476 5475 5474 5473 5472 5471 5470 5469 5468 5466 5465 5463
5454 5455 5455 5455 5456 5456 5457 5458 5459 5460 5461 5462 5463 5464 5466 5467 5468 5469 5470 5470 5471 5471 5471 5471 5471 5470 5470 5469 5469 5468 5468 5467 5466 5465 5464 5463 5462 5460 5459 5458 5457 5455 5454 5452
5445 5445 5446 5446 5447 5447 5448 5449 5449 5450 5451 5452 5453 5454 5456 5458 5459 5460 5460 5460 5460 5460 5460 5460 5460 5460 5459 5459 5458 5458 5457 5457 5456 5455 5454 5453 5451 5450 5449 5448 5446 5444 5442 5440
5437 5437 5438 5438 5438 5438 5439 5439 5440 5441 5442 5443 5444 5445 5447 5448 5449 5450 5450 5450 5450 5450 5449 5449 5449 5449 5449 5448 5448 5448 5447 5446 5446 5445 5443 5442 5441 5440 5439 5437 5435 5434 5431 5429
5430 5430 5430 5430 5430 5430 5431 5431 5431 5432 5433 5434 5435 5436 5437 5439 5440 5440 5440 5440 5440 5439 5439 5439 5439 5439 5439 5438 5438 5437 5437 5436 5435 5434 5433 5432 5431 5430 5428 5427 5425 5423 5421 5419
5423 5422 5423 5423 5423 5423 5423 5423 5423 5424 5424 5425 5426 5427 5428 5429 5430 5430 5430 5430 5430 5429 5429 5428 5428 5428 5428 5428 5427 5427 5426 5425 5425 5424 5423 5422 5420 5419 5418 5416 5414 5412 5410 5408
5416 5416 5416 5416 5415 5415 5415 5415 5415 5416 5416 5417 5418 5418 5419 5420 5420 5420 5420 5420 5420 5419 5419 5419 5418 5418 5418 5417 5417 5416 5415 5415 5414 5413 5412 5411 5410 5408 5407 5405 5404 5402 5400 5398
5410 5409 5409 5409 5408 5408 5408 5408 5408 5408 5408 5409 5409 5410 5410 5411 5411 5411 5411 5410 5410 5409 5409 5409 5408 5408 5407 5407 5406 5405 5405 5404 5403 5402 5401 5400 5399 5398 5397 5395 5393 5392 5390 5389
5404 5403 5403 5402 5402 5401 5401 5401 5401 5401 5401 5401 5401 5401 5402 5402 5402 5402 5402 5401 5401 5400 5400 5399 5399 5398 5398 5397 5396 5395 5394 5393 5393 5392 5391 5390 5389 5388 5387 5385 5384 5382 5381 5379
5398 5397 5397 5396 5396 5395 5395 5394 5394 5394 5394 5394 5394 5394 5394 5394 5394 5393 5393 5393 5392 5392 5391 5391 5390 5389 5389 5388 5387 5386 5385 5384 5383 5382 5381 5380 5379 5378 5377 5376 5375 5373 5372 5370
5392 5392 5391 5391 5390 5390 5389 5389 5388 5388 5388 5387 5387 5387 5386 5386 5386 5386 5385 5385 5385 5384 5383 5383 5382 5381 5380 5379 5378 5377 5376 5375 5374 5373 5372 5371 5370 5369 5368 5367 5366 5365 5363 5362
5387 5386 5386 5385 5385 5384 5383 5383 5382 5382 5382 5381 5381 5380 5380 5379 5379 5379 5378 5378 5377 5377 5376 5375 5374 5373 5372 5371 5370 5369 5368 5367 5365 5364 5363 5362 5361 5360 5359 5358 5357 5356 5355 5354